Time,TemperatureF,DewpointF,PressureIn,WindDirection,WindDirectionDegrees,WindSpeedMPH,WindSpeedGustMPH,Humidity,HourlyPrecipIn,Conditions,Clouds,dailyrainin,SoftwareType,DateUTC
2013-04-04 00:00:00,36.5,19.1,30.19,SSE,157,0.0,0.0,49,0.00,,,0.00,WUHU21636XXSP,2013-04-04 05:00:00,
2013-04-04 00:05:00,36.5,19.1,30.18,South,180,0.0,0.0,49,0.00,,,0.00,WUHU21636XXSP,2013-04-04 05:05:00,
2013-04-04 00:10:00,36.8,19.3,30.19,West,270,0.0,0.0,49,0.00,,,0.00,WUHU21636XXSP,2013-04-04 05:10:00,
2013-04-04 00:15:00,36.8,19.3,30.19,WSW,247,0.0,0.0,49,0.00,,,0.00,WUHU21636XXSP,2013-04-04 05:15:00,
2013-04-04 00:20:00,36.8,19.3,30.18,SW,225,0.0,0.0,49,0.00,,,0.00,WUHU21636XXSP,2013-04-04 05:20:00,
2013-04-04 00:25:00,36.8,19.3,30.19,SW,225,0.0,0.0,49,0.00,,,0.00,WUHU21636XXSP,2013-04-04 05:25:00,
2013-04-04 00:30:00,36.8,18.8,30.18,West,270,0.0,0.0,48,0.00,,,0.00,WUHU21636XXSP,2013-04-04 05:30:00,
2013-04-04 00:35:00,36.8,18.8,30.18,SSW,202,0.0,0.0,48,0.00,,,0.00,WUHU21636XXSP,2013-04-04 05:35:00,
2013-04-04 00:40:00,36.5,18.6,30.18,SW,225,0.0,0.0,48,0.00,,,0.00,WUHU21636XXSP,2013-04-04 05:40:00,
2013-04-04 00:45:00,36.5,18.6,30.18,WSW,247,0.0,0.0,48,0.00,,,0.00,WUHU21636XXSP,2013-04-04 05:45:00,
2013-04-04 00:50:00,36.5,19.1,30.17,South,180,0.0,0.0,49,0.00,,,0.00,WUHU21636XXSP,2013-04-04 05:50:00,
2013-04-04 00:55:00,36.5,18.6,30.17,NW,315,0.0,0.0,48,0.00,,,0.00,WUHU21636XXSP,2013-04-04 05:55:00,
2013-04-04 01:00:00,36.4,18.5,30.17,WNW,292,0.0,0.0,48,0.00,,,0.00,WUHU21636XXSP,2013-04-04 06:00:00,
2013-04-04 01:05:00,36.5,18.6,30.17,SSE,157,0.0,0.0,48,0.00,,,0.00,WUHU21636XXSP,2013-04-04 06:05:00,
2013-04-04 01:10:00,36.5,18.6,30.16,SSW,202,0.0,0.0,48,0.00,,,0.00,WUHU21636XXSP,2013-04-04 06:10:00,
2013-04-04 01:15:00,36.8,18.8,30.16,West,270,0.0,0.0,48,0.00,,,0.00,WUHU21636XXSP,2013-04-04 06:15:00,
2013-04-04 01:20:00,36.8,18.8,30.16,WSW,247,0.0,0.0,48,0.00,,,0.00,WUHU21636XXSP,2013-04-04 06:20:00,
2013-04-04 01:25:00,36.8,18.8,30.16,South,180,0.0,0.0,48,0.00,,,0.00,WUHU21636XXSP,2013-04-04 06:25:00,
2013-04-04 01:30:00,36.8,18.3,30.15,South,180,0.0,0.0,47,0.00,,,0.00,WUHU21636XXSP,2013-04-04 06:30:00,
2013-04-04 01:35:00,36.8,18.3,30.16,South,180,0.0,0.0,47,0.00,,,0.00,WUHU21636XXSP,2013-04-04 06:35:00,
2013-04-04 01:40:00,36.8,18.3,30.16,South,180,0.0,0.0,47,0.00,,,0.00,WUHU21636XXSP,2013-04-04 06:40:00,
2013-04-04 01:45:00,37.0,18.5,30.16,SW,225,0.0,0.0,47,0.00,,,0.00,WUHU21636XXSP,2013-04-04 06:45:00,
2013-04-04 01:50:00,37.0,18.0,30.15,WSW,247,0.0,0.0,46,0.00,,,0.00,WUHU21636XXSP,2013-04-04 06:50:00,
2013-04-04 01:55:00,37.2,18.2,30.15,NNE,22,0.0,0.0,46,0.00,,,0.00,WUHU21636XXSP,2013-04-04 06:55:00,
2013-04-04 02:00:00,37.2,18.2,30.15,WSW,247,0.0,0.0,46,0.00,,,0.00,WUHU21636XXSP,2013-04-04 07:00:00,
2013-04-04 02:05:00,37.2,18.2,30.15,West,270,0.0,0.0,46,0.00,,,0.00,WUHU21636XXSP,2013-04-04 07:05:00,
2013-04-04 02:10:00,37.4,17.8,30.14,SW,225,0.0,0.0,45,0.00,,,0.00,WUHU21636XXSP,2013-04-04 07:10:00,
2013-04-04 02:15:00,37.5,17.9,30.14,ENE,67,0.0,0.0,45,0.00,,,0.00,WUHU21636XXSP,2013-04-04 07:15:00,
2013-04-04 02:20:00,37.5,17.9,30.14,SW,225,0.0,0.0,45,0.00,,,0.00,WUHU21636XXSP,2013-04-04 07:20:00,
2013-04-04 02:25:00,37.5,17.4,30.14,WSW,247,0.0,0.0,44,0.00,,,0.00,WUHU21636XXSP,2013-04-04 07:25:00,
2013-04-04 02:30:00,37.5,17.4,30.14,NW,315,0.0,0.0,44,0.00,,,0.00,WUHU21636XXSP,2013-04-04 07:30:00,
2013-04-04 02:35:00,37.5,17.9,30.14,WNW,292,0.0,0.0,45,0.00,,,0.00,WUHU21636XXSP,2013-04-04 07:35:00,
2013-04-04 02:40:00,37.5,17.9,30.13,SW,225,0.0,0.0,45,0.00,,,0.00,WUHU21636XXSP,2013-04-04 07:40:00,
2013-04-04 02:45:00,37.4,17.8,30.13,WNW,292,0.0,0.0,45,0.00,,,0.00,WUHU21636XXSP,2013-04-04 07:45:00,
2013-04-04 02:50:00,37.2,17.1,30.13,East,90,0.0,0.0,44,0.00,,,0.00,WUHU21636XXSP,2013-04-04 07:50:00,
2013-04-04 02:55:00,37.2,17.1,30.13,West,270,0.0,0.0,44,0.00,,,0.00,WUHU21636XXSP,2013-04-04 07:55:00,
2013-04-04 03:00:00,37.2,17.6,30.13,WSW,247,0.0,0.0,45,0.00,,,0.00,WUHU21636XXSP,2013-04-04 08:00:00,
2013-04-04 03:05:00,37.0,17.4,30.13,West,270,0.0,0.0,45,0.00,,,0.00,WUHU21636XXSP,2013-04-04 08:05:00,
2013-04-04 03:10:00,37.2,17.6,30.12,West,270,0.0,0.0,45,0.00,,,0.00,WUHU21636XXSP,2013-04-04 08:10:00,
2013-04-04 03:15:00,37.0,17.4,30.12,SW,225,0.0,0.0,45,0.00,,,0.00,WUHU21636XXSP,2013-04-04 08:15:00,
2013-04-04 03:20:00,37.0,17.4,30.12,WSW,247,0.0,0.0,45,0.00,,,0.00,WUHU21636XXSP,2013-04-04 08:20:00,
2013-04-04 03:25:00,37.0,18.0,30.13,WSW,247,0.0,0.0,46,0.00,,,0.00,WUHU21636XXSP,2013-04-04 08:25:00,
2013-04-04 03:30:00,37.0,18.0,30.12,SW,225,0.0,0.0,46,0.00,,,0.00,WUHU21636XXSP,2013-04-04 08:30:00,
2013-04-04 03:35:00,36.8,17.8,30.12,SW,225,0.0,0.0,46,0.00,,,0.00,WUHU21636XXSP,2013-04-04 08:35:00,
2013-04-04 03:40:00,36.4,18.0,30.13,West,270,0.0,0.0,47,0.00,,,0.00,WUHU21636XXSP,2013-04-04 08:40:00,
2013-04-04 03:45:00,36.0,18.1,30.12,West,270,0.0,0.0,48,0.00,,,0.00,WUHU21636XXSP,2013-04-04 08:45:00,
2013-04-04 03:50:00,35.8,17.9,30.13,WSW,247,0.0,0.0,48,0.00,,,0.00,WUHU21636XXSP,2013-04-04 08:50:00,
2013-04-04 03:55:00,35.8,18.4,30.13,SW,225,0.0,0.0,49,0.00,,,0.00,WUHU21636XXSP,2013-04-04 08:55:00,
2013-04-04 04:00:00,35.6,18.2,30.13,WSW,247,0.0,0.0,49,0.00,,,0.00,WUHU21636XXSP,2013-04-04 09:00:00,
2013-04-04 04:05:00,35.6,18.2,30.13,SW,225,0.0,0.0,49,0.00,,,0.00,WUHU21636XXSP,2013-04-04 09:05:00,
2013-04-04 04:10:00,35.6,18.7,30.13,WSW,247,0.0,0.0,50,0.00,,,0.00,WUHU21636XXSP,2013-04-04 09:10:00,
2013-04-04 04:15:00,35.3,18.4,30.12,SW,225,0.0,0.0,50,0.00,,,0.00,WUHU21636XXSP,2013-04-04 09:15:00,
2013-04-04 04:20:00,35.3,18.4,30.12,NNW,337,0.0,0.0,50,0.00,,,0.00,WUHU21636XXSP,2013-04-04 09:20:00,
2013-04-04 04:25:00,35.3,18.4,30.12,SW,225,0.0,0.0,50,0.00,,,0.00,WUHU21636XXSP,2013-04-04 09:25:00,
2013-04-04 04:30:00,35.3,18.4,30.12,WSW,247,0.0,0.0,50,0.00,,,0.00,WUHU21636XXSP,2013-04-04 09:30:00,
2013-04-04 04:35:00,35.3,18.4,30.12,West,270,0.0,0.0,50,0.00,,,0.00,WUHU21636XXSP,2013-04-04 09:35:00,
2013-04-04 04:40:00,35.6,18.2,30.12,SSW,202,0.0,0.0,49,0.00,,,0.00,WUHU21636XXSP,2013-04-04 09:40:00,
2013-04-04 04:45:00,35.6,18.2,30.12,West,270,0.0,0.0,49,0.00,,,0.00,WUHU21636XXSP,2013-04-04 09:45:00,
2013-04-04 04:50:00,35.6,18.7,30.12,West,270,0.0,0.0,50,0.00,,,0.00,WUHU21636XXSP,2013-04-04 09:50:00,
2013-04-04 04:55:00,35.6,18.7,30.12,WNW,292,1.2,1.2,50,0.00,,,0.00,WUHU21636XXSP,2013-04-04 09:55:00,
2013-04-04 05:00:00,35.6,18.2,30.12,West,270,0.0,1.2,49,0.00,,,0.00,WUHU21636XXSP,2013-04-04 10:00:00,
2013-04-04 05:05:00,35.6,18.7,30.11,West,270,0.0,0.0,50,0.00,,,0.00,WUHU21636XXSP,2013-04-04 10:05:00,
2013-04-04 05:10:00,35.6,18.7,30.12,SW,225,0.0,0.0,50,0.00,,,0.00,WUHU21636XXSP,2013-04-04 10:10:00,
2013-04-04 05:15:00,35.5,18.6,30.11,West,270,0.0,0.0,50,0.00,,,0.00,WUHU21636XXSP,2013-04-04 10:15:00,
2013-04-04 05:20:00,35.3,18.4,30.11,West,270,0.0,0.0,50,0.00,,,0.00,WUHU21636XXSP,2013-04-04 10:20:00,
2013-04-04 05:25:00,35.3,18.4,30.11,WNW,292,0.0,0.0,50,0.00,,,0.00,WUHU21636XXSP,2013-04-04 10:25:00,
2013-04-04 05:31:00,35.3,18.9,30.10,West,270,0.0,0.0,51,0.00,,,0.00,WUHU21636XXSP,2013-04-04 10:31:00,
2013-04-04 05:36:00,35.3,18.9,30.11,SW,225,0.0,0.0,51,0.00,,,0.00,WUHU21636XXSP,2013-04-04 10:36:00,
2013-04-04 05:41:00,35.3,18.9,30.10,SW,225,0.0,0.0,51,0.00,,,0.00,WUHU21636XXSP,2013-04-04 10:41:00,
2013-04-04 05:46:00,35.3,18.9,30.10,WSW,247,0.0,0.0,51,0.00,,,0.00,WUHU21636XXSP,2013-04-04 10:46:00,
2013-04-04 05:51:00,35.3,18.9,30.10,WSW,247,0.0,0.0,51,0.00,,,0.00,WUHU21636XXSP,2013-04-04 10:51:00,
2013-04-04 05:56:00,35.6,18.7,30.10,SW,225,0.0,0.0,50,0.00,,,0.00,WUHU21636XXSP,2013-04-04 10:56:00,
2013-04-04 06:01:00,35.6,18.7,30.10,SW,225,0.0,0.0,50,0.00,,,0.00,WUHU21636XXSP,2013-04-04 11:01:00,
2013-04-04 06:06:00,35.8,18.9,30.10,West,270,3.0,3.0,50,0.00,,,0.00,WUHU21636XXSP,2013-04-04 11:06:00,
2013-04-04 06:11:00,35.8,18.9,30.10,SW,225,1.2,3.0,50,0.00,,,0.00,WUHU21636XXSP,2013-04-04 11:11:00,
2013-04-04 06:17:00,35.8,18.9,30.10,West,270,0.0,1.9,50,0.00,,,0.00,WUHU21636XXSP,2013-04-04 11:17:00,
2013-04-04 06:22:00,35.6,19.2,30.09,West,270,0.0,1.9,51,0.00,,,0.00,WUHU21636XXSP,2013-04-04 11:22:00,
2013-04-04 06:27:00,35.6,18.7,30.09,NW,315,0.0,0.0,50,0.00,,,0.00,WUHU21636XXSP,2013-04-04 11:27:00,
2013-04-04 06:32:00,35.8,18.9,30.09,SW,225,0.0,0.0,50,0.00,,,0.00,WUHU21636XXSP,2013-04-04 11:32:00,
2013-04-04 06:37:00,35.8,18.9,30.08,WNW,292,0.0,0.0,50,0.00,,,0.00,WUHU21636XXSP,2013-04-04 11:37:00,
2013-04-04 06:42:00,35.8,19.4,30.08,WSW,247,0.0,0.0,51,0.00,,,0.00,WUHU21636XXSP,2013-04-04 11:42:00,
2013-04-04 06:47:00,35.8,19.4,30.08,WSW,247,0.0,0.0,51,0.00,,,0.00,WUHU21636XXSP,2013-04-04 11:47:00,
2013-04-04 06:52:00,35.8,19.4,30.08,SW,225,0.0,0.0,51,0.00,,,0.00,WUHU21636XXSP,2013-04-04 11:52:00,
2013-04-04 06:57:00,35.8,19.4,30.08,SW,225,0.0,0.0,51,0.00,,,0.00,WUHU21636XXSP,2013-04-04 11:57:00,
2013-04-04 07:02:00,35.8,19.4,30.08,SW,225,0.0,0.0,51,0.00,,,0.00,WUHU21636XXSP,2013-04-04 12:02:00,
2013-04-04 07:07:00,35.8,18.9,30.08,West,270,0.0,0.0,50,0.00,,,0.00,WUHU21636XXSP,2013-04-04 12:07:00,
2013-04-04 07:12:00,35.6,18.7,30.08,WNW,292,0.0,0.0,50,0.00,,,0.00,WUHU21636XXSP,2013-04-04 12:12:00,
2013-04-04 07:17:00,35.8,19.4,30.08,SSW,202,0.0,0.0,51,0.00,,,0.00,WUHU21636XXSP,2013-04-04 12:17:00,
2013-04-04 07:22:00,35.8,19.4,30.08,West,270,0.0,0.0,51,0.00,,,0.00,WUHU21636XXSP,2013-04-04 12:22:00,
2013-04-04 07:27:00,35.8,19.4,30.08,SE,135,0.0,0.0,51,0.00,,,0.00,WUHU21636XXSP,2013-04-04 12:27:00,
2013-04-04 07:32:00,35.8,19.9,30.08,WSW,247,0.0,0.0,52,0.00,,,0.00,WUHU21636XXSP,2013-04-04 12:32:00,
2013-04-04 07:37:00,35.6,19.7,30.08,WSW,247,0.0,0.0,52,0.00,,,0.00,WUHU21636XXSP,2013-04-04 12:37:00,
2013-04-04 07:42:00,35.6,19.7,30.08,WSW,247,0.0,0.0,52,0.00,,,0.00,WUHU21636XXSP,2013-04-04 12:42:00,
2013-04-04 07:47:00,35.6,19.2,30.08,West,270,0.0,0.0,51,0.00,,,0.00,WUHU21636XXSP,2013-04-04 12:47:00,
2013-04-04 07:52:00,36.0,19.6,30.08,WSW,247,0.0,0.0,51,0.00,,,0.00,WUHU21636XXSP,2013-04-04 12:52:00,
2013-04-04 07:57:00,36.2,20.2,30.08,SW,225,0.0,0.0,52,0.00,,,0.00,WUHU21636XXSP,2013-04-04 12:57:00,
2013-04-04 08:02:00,36.5,20.5,30.08,WSW,247,0.0,0.0,52,0.00,,,0.00,WUHU21636XXSP,2013-04-04 13:02:00,
2013-04-04 08:07:00,36.8,20.3,30.07,SW,225,0.0,0.0,51,0.00,,,0.00,WUHU21636XXSP,2013-04-04 13:07:00,
2013-04-04 08:12:00,37.0,20.9,30.07,WSW,247,0.0,0.0,52,0.00,,,0.00,WUHU21636XXSP,2013-04-04 13:12:00,
2013-04-04 08:17:00,37.5,20.9,30.07,WSW,247,0.0,0.0,51,0.00,,,0.00,WUHU21636XXSP,2013-04-04 13:17:00,
2013-04-04 08:22:00,37.9,21.3,30.07,SSW,202,0.0,0.0,51,0.00,,,0.00,WUHU21636XXSP,2013-04-04 13:22:00,
2013-04-04 08:27:00,38.1,21.5,30.07,West,270,0.0,0.0,51,0.00,,,0.00,WUHU21636XXSP,2013-04-04 13:27:00,
2013-04-04 08:32:00,38.4,21.3,30.07,WSW,247,0.0,0.0,50,0.00,,,0.00,WUHU21636XXSP,2013-04-04 13:32:00,
2013-04-04 08:38:00,38.6,21.5,30.06,WSW,247,0.0,0.0,50,0.00,,,0.00,WUHU21636XXSP,2013-04-04 13:38:00,
2013-04-04 08:43:00,39.1,21.4,30.06,West,270,0.0,0.0,49,0.00,,,0.00,WUHU21636XXSP,2013-04-04 13:43:00,
2013-04-04 08:48:00,39.4,21.7,30.06,West,270,0.0,0.0,49,0.00,,,0.00,WUHU21636XXSP,2013-04-04 13:48:00,
2013-04-04 08:53:00,40.0,22.3,30.06,WSW,247,0.0,0.0,49,0.00,,,0.00,WUHU21636XXSP,2013-04-04 13:53:00,
2013-04-04 08:58:00,40.3,22.6,30.06,WSW,247,0.0,0.0,49,0.00,,,0.00,WUHU21636XXSP,2013-04-04 13:58:00,
2013-04-04 09:03:00,40.5,22.3,30.06,West,270,0.0,0.0,48,0.00,,,0.00,WUHU21636XXSP,2013-04-04 14:03:00,
2013-04-04 09:08:00,41.3,23.5,30.06,SSW,202,0.0,0.0,49,0.00,,,0.00,WUHU21636XXSP,2013-04-04 14:08:00,
2013-04-04 09:13:00,41.5,23.2,30.06,SSW,202,0.0,0.0,48,0.00,,,0.00,WUHU21636XXSP,2013-04-04 14:13:00,
2013-04-04 09:18:00,41.9,23.5,30.06,West,270,0.0,0.0,48,0.00,,,0.00,WUHU21636XXSP,2013-04-04 14:18:00,
2013-04-04 09:23:00,42.2,23.8,30.06,SW,225,0.0,0.0,48,0.00,,,0.00,WUHU21636XXSP,2013-04-04 14:23:00,
2013-04-04 09:28:00,42.6,23.7,30.05,WNW,292,0.0,0.0,47,0.00,,,0.00,WUHU21636XXSP,2013-04-04 14:28:00,
2013-04-04 09:33:00,43.2,24.7,30.06,WSW,247,0.0,0.0,48,0.00,,,0.00,WUHU21636XXSP,2013-04-04 14:33:00,
2013-04-04 09:38:00,43.8,24.8,30.06,SW,225,0.0,0.0,47,0.00,,,0.00,WUHU21636XXSP,2013-04-04 14:38:00,
2013-04-04 09:43:00,44.0,25.0,30.05,SW,225,0.0,0.0,47,0.00,,,0.00,WUHU21636XXSP,2013-04-04 14:43:00,
2013-04-04 09:48:00,44.3,25.2,30.05,SW,225,1.2,1.2,47,0.00,,,0.00,WUHU21636XXSP,2013-04-04 14:48:00,
2013-04-04 09:53:00,44.7,25.6,30.05,WSW,247,0.0,1.2,47,0.00,,,0.00,WUHU21636XXSP,2013-04-04 14:53:00,
2013-04-04 09:58:00,45.3,26.1,30.04,SW,225,0.0,0.0,47,0.00,,,0.00,WUHU21636XXSP,2013-04-04 14:58:00,
2013-04-04 10:03:00,45.7,26.5,30.05,WSW,247,3.4,3.4,47,0.00,,,0.00,WUHU21636XXSP,2013-04-04 15:03:00,
2013-04-04 10:08:00,46.4,27.2,30.04,WSW,247,0.0,3.4,47,0.00,,,0.00,WUHU21636XXSP,2013-04-04 15:08:00,
2013-04-04 10:13:00,46.6,26.8,30.04,SW,225,0.0,3.4,46,0.00,,,0.00,WUHU21636XXSP,2013-04-04 15:13:00,
2013-04-04 10:18:00,46.9,27.1,30.04,SSW,202,0.0,0.0,46,0.00,,,0.00,WUHU21636XXSP,2013-04-04 15:18:00,
2013-04-04 10:23:00,47.6,27.2,30.04,WSW,247,0.0,0.0,45,0.00,,,0.00,WUHU21636XXSP,2013-04-04 15:23:00,
2013-04-04 10:28:00,47.9,28.5,30.03,SW,225,1.6,1.6,47,0.00,,,0.00,WUHU21636XXSP,2013-04-04 15:28:00,
2013-04-04 10:33:00,47.9,28.0,30.04,West,270,0.0,1.6,46,0.00,,,0.00,WUHU21636XXSP,2013-04-04 15:33:00,
2013-04-04 10:38:00,48.1,28.2,30.03,SW,225,0.0,1.6,46,0.00,,,0.00,WUHU21636XXSP,2013-04-04 15:38:00,
2013-04-04 10:43:00,48.7,28.2,30.03,WSW,247,0.0,0.0,45,0.00,,,0.00,WUHU21636XXSP,2013-04-04 15:43:00,
2013-04-04 10:48:00,48.8,28.9,30.03,WSW,247,0.0,0.0,46,0.00,,,0.00,WUHU21636XXSP,2013-04-04 15:48:00,
2013-04-04 10:53:00,48.5,28.6,30.03,SW,225,0.0,0.0,46,0.00,,,0.00,WUHU21636XXSP,2013-04-04 15:53:00,
2013-04-04 10:59:00,48.1,28.2,30.04,SW,225,0.4,0.4,46,0.00,,,0.00,WUHU21636XXSP,2013-04-04 15:59:00,
2013-04-04 11:04:00,48.5,29.1,30.04,SW,225,0.0,0.4,47,0.00,,,0.00,WUHU21636XXSP,2013-04-04 16:04:00,
2013-04-04 11:09:00,49.8,29.7,30.03,SW,225,1.2,1.2,46,0.00,,,0.00,WUHU21636XXSP,2013-04-04 16:09:00,
2013-04-04 11:14:00,50.4,30.3,30.03,SW,225,0.0,1.2,46,0.00,,,0.00,WUHU21636XXSP,2013-04-04 16:14:00,
2013-04-04 11:19:00,50.7,30.0,30.03,WSW,247,0.0,1.2,45,0.00,,,0.00,WUHU21636XXSP,2013-04-04 16:19:00,
2013-04-04 11:24:00,50.7,30.0,30.03,WSW,247,0.0,0.0,45,0.00,,,0.00,WUHU21636XXSP,2013-04-04 16:24:00,
2013-04-04 11:29:00,50.0,30.5,30.03,WSW,247,0.0,0.0,47,0.00,,,0.00,WUHU21636XXSP,2013-04-04 16:29:00,
2013-04-04 11:34:00,49.0,30.1,30.03,West,269,2.0,2.6,48,0.00,,,0.00,WUHU21636XXSP,2013-04-04 16:34:00,
2013-04-04 11:39:00,48.7,30.9,30.03,WSW,247,0.0,2.6,50,0.00,,,0.00,WUHU21636XXSP,2013-04-04 16:39:00,
2013-04-04 11:44:00,47.6,30.8,30.03,WNW,292,0.0,0.4,52,0.00,,,0.00,WUHU21636XXSP,2013-04-04 16:44:00,
2013-04-04 11:49:00,46.9,31.6,30.03,West,270,0.0,0.0,55,0.00,,,0.00,WUHU21636XXSP,2013-04-04 16:49:00,
2013-04-04 11:54:00,46.6,31.3,30.02,SW,225,0.0,0.0,55,0.00,,,0.00,WUHU21636XXSP,2013-04-04 16:54:00,
2013-04-04 12:00:00,46.4,30.7,30.02,WSW,247,0.0,0.0,54,0.00,,,0.00,WUHU21636XXSP,2013-04-04 17:00:00,
2013-04-04 12:05:00,46.4,31.1,30.02,SSW,202,0.0,0.0,55,0.00,,,0.00,WUHU21636XXSP,2013-04-04 17:05:00,
2013-04-04 12:10:00,46.6,31.3,30.02,South,180,0.0,0.0,55,0.00,,,0.00,WUHU21636XXSP,2013-04-04 17:10:00,
2013-04-04 12:15:00,46.6,30.4,30.02,SW,225,0.0,0.0,53,0.00,,,0.00,WUHU21636XXSP,2013-04-04 17:15:00,
2013-04-04 12:20:00,46.2,30.9,30.03,SSW,202,0.0,0.0,55,0.00,,,0.00,WUHU21636XXSP,2013-04-04 17:20:00,
2013-04-04 12:25:00,46.0,31.2,30.03,SW,225,0.0,0.0,56,0.00,,,0.00,WUHU21636XXSP,2013-04-04 17:25:00,
2013-04-04 12:30:00,45.7,31.4,30.03,West,270,0.0,0.0,57,0.00,,,0.00,WUHU21636XXSP,2013-04-04 17:30:00,
2013-04-04 12:35:00,46.0,32.1,30.03,SSW,202,0.0,0.0,58,0.00,,,0.00,WUHU21636XXSP,2013-04-04 17:35:00,
2013-04-04 12:40:00,46.4,33.4,30.03,West,270,0.0,0.0,60,0.00,,,0.00,WUHU21636XXSP,2013-04-04 17:40:00,
2013-04-04 12:45:00,46.9,33.8,30.03,WSW,247,0.0,0.0,60,0.00,,,0.00,WUHU21636XXSP,2013-04-04 17:45:00,
2013-04-04 12:50:00,47.8,33.8,30.03,WSW,247,0.0,0.0,58,0.00,,,0.00,WUHU21636XXSP,2013-04-04 17:50:00,
2013-04-04 12:55:00,47.9,33.9,30.02,SSE,157,0.0,0.0,58,0.00,,,0.00,WUHU21636XXSP,2013-04-04 17:55:00,
2013-04-04 13:00:00,47.8,33.8,30.03,WNW,292,0.0,0.0,58,0.00,,,0.00,WUHU21636XXSP,2013-04-04 18:00:00,
2013-04-04 13:05:00,47.1,33.2,30.02,WNW,292,0.0,0.0,58,0.00,,,0.00,WUHU21636XXSP,2013-04-04 18:05:00,
2013-04-04 13:10:00,47.6,34.0,30.02,West,270,0.0,0.0,59,0.00,,,0.00,WUHU21636XXSP,2013-04-04 18:10:00,
2013-04-04 13:15:00,48.1,34.5,30.02,SSW,202,0.0,0.0,59,0.00,,,0.00,WUHU21636XXSP,2013-04-04 18:15:00,
2013-04-04 13:20:00,48.8,34.3,30.02,SW,225,0.0,0.0,57,0.00,,,0.00,WUHU21636XXSP,2013-04-04 18:20:00,
2013-04-04 13:25:00,49.5,34.0,30.02,WSW,247,0.0,0.0,55,0.00,,,0.00,WUHU21636XXSP,2013-04-04 18:25:00,
2013-04-04 13:30:00,50.2,34.7,30.02,South,180,0.0,0.0,55,0.00,,,0.00,WUHU21636XXSP,2013-04-04 18:30:00,
2013-04-04 13:35:00,50.7,34.7,30.02,SW,225,0.0,0.0,54,0.00,,,0.00,WUHU21636XXSP,2013-04-04 18:35:00,
2013-04-04 13:40:00,51.6,36.0,30.02,SSW,202,4.8,4.8,55,0.00,,,0.00,WUHU21636XXSP,2013-04-04 18:40:00,
2013-04-04 13:45:00,51.6,35.5,30.02,West,270,0.0,4.8,54,0.00,,,0.00,WUHU21636XXSP,2013-04-04 18:45:00,
2013-04-04 13:50:00,52.5,35.9,30.02,SW,225,0.0,0.0,53,0.00,,,0.00,WUHU21636XXSP,2013-04-04 18:50:00,
2013-04-04 13:55:00,53.2,36.1,30.01,South,180,0.0,0.0,52,0.00,,,0.00,WUHU21636XXSP,2013-04-04 18:55:00,
2013-04-04 14:00:00,54.0,35.7,30.01,WNW,292,0.0,0.0,50,0.00,,,0.00,WUHU21636XXSP,2013-04-04 19:00:00,
2013-04-04 14:05:00,53.8,36.1,30.01,West,270,0.0,0.0,51,0.00,,,0.00,WUHU21636XXSP,2013-04-04 19:05:00,
2013-04-04 14:10:00,54.2,35.9,30.01,West,270,0.0,0.0,50,0.00,,,0.00,WUHU21636XXSP,2013-04-04 19:10:00,
2013-04-04 14:15:00,54.5,36.2,30.01,South,180,0.0,0.0,50,0.00,,,0.00,WUHU21636XXSP,2013-04-04 19:15:00,
2013-04-04 14:20:00,55.1,36.3,30.01,NNE,22,0.0,0.0,49,0.00,,,0.00,WUHU21636XXSP,2013-04-04 19:20:00,
2013-04-04 14:25:00,54.7,35.3,30.01,NW,315,0.0,0.0,48,0.00,,,0.00,WUHU21636XXSP,2013-04-04 19:25:00,
2013-04-04 14:30:00,55.7,36.8,30.01,WSW,247,0.0,0.0,49,0.00,,,0.00,WUHU21636XXSP,2013-04-04 19:30:00,
2013-04-04 14:35:00,56.4,36.9,30.01,SW,225,0.0,0.0,48,0.00,,,0.00,WUHU21636XXSP,2013-04-04 19:35:00,
2013-04-04 14:40:00,56.4,36.3,30.01,SSW,202,0.0,0.0,47,0.00,,,0.00,WUHU21636XXSP,2013-04-04 19:40:00,
2013-04-04 14:45:00,56.6,36.0,30.01,NW,315,0.0,5.2,46,0.00,,,0.00,WUHU21636XXSP,2013-04-04 19:45:00,
2013-04-04 14:50:00,55.9,35.9,30.01,South,180,0.0,5.2,47,0.00,,,0.00,WUHU21636XXSP,2013-04-04 19:50:00,
2013-04-04 14:55:00,56.4,35.8,30.01,SE,135,0.0,0.0,46,0.00,,,0.00,WUHU21636XXSP,2013-04-04 19:55:00,
2013-04-04 15:01:00,55.1,35.2,30.01,NNW,337,0.0,0.8,47,0.00,,,0.00,WUHU21636XXSP,2013-04-04 20:01:00,
2013-04-04 15:05:00,54.7,35.3,30.01,NNW,337,6.6,6.6,48,0.00,,,0.00,WUHU21636XXSP,2013-04-04 20:05:00,
2013-04-04 15:11:00,54.5,35.2,30.01,WSW,247,2.6,6.6,48,0.00,,,0.00,WUHU21636XXSP,2013-04-04 20:11:00,
2013-04-04 15:16:00,55.4,36.0,30.01,SSW,202,1.6,6.6,48,0.00,,,0.00,WUHU21636XXSP,2013-04-04 20:16:00,
2013-04-04 15:21:00,55.4,34.9,30.01,NNE,22,1.6,1.6,46,0.00,,,0.00,WUHU21636XXSP,2013-04-04 20:21:00,
2013-04-04 15:27:00,54.5,35.2,30.01,WNW,292,0.0,1.6,48,0.00,,,0.00,WUHU21636XXSP,2013-04-04 20:27:00,
2013-04-04 15:32:00,55.3,35.9,30.00,SW,225,0.0,0.0,48,0.00,,,0.00,WUHU21636XXSP,2013-04-04 20:32:00,
2013-04-04 15:37:00,55.4,36.0,30.00,South,180,0.0,0.0,48,0.00,,,0.00,WUHU21636XXSP,2013-04-04 20:37:00,
2013-04-04 15:42:00,56.4,36.3,30.00,SW,225,0.0,0.0,47,0.00,,,0.00,WUHU21636XXSP,2013-04-04 20:42:00,
2013-04-04 15:47:00,56.4,35.8,30.00,NW,315,0.0,0.0,46,0.00,,,0.00,WUHU21636XXSP,2013-04-04 20:47:00,
2013-04-04 15:52:00,56.4,35.8,30.00,SW,225,0.0,0.0,46,0.00,,,0.00,WUHU21636XXSP,2013-04-04 20:52:00,
2013-04-04 15:57:00,57.0,35.8,30.00,North,0,0.0,0.0,45,0.00,,,0.00,WUHU21636XXSP,2013-04-04 20:57:00,
2013-04-04 16:02:00,56.6,34.8,30.00,NNW,337,0.0,0.0,44,0.00,,,0.00,WUHU21636XXSP,2013-04-04 21:02:00,
2013-04-04 16:07:00,56.4,35.2,30.00,East,90,0.0,0.0,45,0.00,,,0.00,WUHU21636XXSP,2013-04-04 21:07:00,
2013-04-04 16:12:00,56.4,34.6,30.00,WSW,247,0.0,0.0,44,0.00,,,0.00,WUHU21636XXSP,2013-04-04 21:12:00,
2013-04-04 16:17:00,56.1,34.3,30.00,NE,45,0.0,0.0,44,0.00,,,0.00,WUHU21636XXSP,2013-04-04 21:17:00,
2013-04-04 16:22:00,56.3,34.5,29.99,WSW,247,0.0,0.0,44,0.00,,,0.00,WUHU21636XXSP,2013-04-04 21:22:00,
2013-04-04 16:27:00,56.3,34.5,30.00,WNW,292,0.0,0.0,44,0.00,,,0.00,WUHU21636XXSP,2013-04-04 21:27:00,
2013-04-04 16:32:00,56.4,34.0,30.00,WSW,247,0.0,0.0,43,0.00,,,0.00,WUHU21636XXSP,2013-04-04 21:32:00,
2013-04-04 16:37:00,56.8,35.0,30.01,SSW,202,0.0,0.0,44,0.00,,,0.00,WUHU21636XXSP,2013-04-04 21:37:00,
2013-04-04 16:42:00,56.4,33.4,30.01,North,0,0.0,0.0,42,0.00,,,0.00,WUHU21636XXSP,2013-04-04 21:42:00,
2013-04-04 16:47:00,56.1,33.7,30.01,North,0,0.0,0.0,43,0.00,,,0.00,WUHU21636XXSP,2013-04-04 21:47:00,
2013-04-04 16:52:00,55.7,34.0,30.01,WNW,292,0.0,1.6,44,0.00,,,0.00,WUHU21636XXSP,2013-04-04 21:52:00,
2013-04-04 16:57:00,55.4,33.2,30.00,WNW,292,0.0,1.6,43,0.00,,,0.00,WUHU21636XXSP,2013-04-04 21:57:00,
2013-04-04 17:02:00,55.7,34.5,30.01,East,90,0.0,0.0,45,0.00,,,0.00,WUHU21636XXSP,2013-04-04 22:02:00,
2013-04-04 17:07:00,55.9,34.2,30.01,SSW,202,0.0,0.0,44,0.00,,,0.00,WUHU21636XXSP,2013-04-04 22:07:00,
2013-04-04 17:12:00,55.7,34.0,30.01,NNW,337,0.0,0.0,44,0.00,,,0.00,WUHU21636XXSP,2013-04-04 22:12:00,
2013-04-04 17:17:00,55.1,33.5,30.01,SSW,202,0.0,0.0,44,0.00,,,0.00,WUHU21636XXSP,2013-04-04 22:17:00,
2013-04-04 17:22:00,55.1,33.5,30.01,WSW,247,0.0,0.0,44,0.00,,,0.00,WUHU21636XXSP,2013-04-04 22:22:00,
2013-04-04 17:27:00,54.7,33.1,30.01,WSW,247,0.0,0.0,44,0.00,,,0.00,WUHU21636XXSP,2013-04-04 22:27:00,
2013-04-04 17:32:00,54.7,33.7,30.01,SSE,157,0.0,0.0,45,0.00,,,0.00,WUHU21636XXSP,2013-04-04 22:32:00,
2013-04-04 17:37:00,54.5,32.9,30.01,WSW,247,0.0,0.0,44,0.00,,,0.00,WUHU21636XXSP,2013-04-04 22:37:00,
2013-04-04 17:42:00,54.2,32.6,30.01,ESE,112,0.0,0.0,44,0.00,,,0.00,WUHU21636XXSP,2013-04-04 22:42:00,
2013-04-04 17:47:00,54.4,32.8,30.01,WSW,247,0.0,0.0,44,0.00,,,0.00,WUHU21636XXSP,2013-04-04 22:47:00,
2013-04-04 17:52:00,53.5,31.5,30.01,East,90,0.0,0.0,43,0.00,,,0.00,WUHU21636XXSP,2013-04-04 22:52:00,
2013-04-04 17:57:00,53.2,31.2,30.02,NNE,22,0.0,0.0,43,0.00,,,0.00,WUHU21636XXSP,2013-04-04 22:57:00,
2013-04-04 18:02:00,52.8,30.2,30.02,SSW,202,0.0,0.0,42,0.00,,,0.00,WUHU21636XXSP,2013-04-04 23:02:00,
2013-04-04 18:07:00,52.6,30.6,30.02,West,270,0.0,0.0,43,0.00,,,0.00,WUHU21636XXSP,2013-04-04 23:07:00,
2013-04-04 18:12:00,52.3,29.1,30.02,WSW,247,0.0,0.0,41,0.00,,,0.00,WUHU21636XXSP,2013-04-04 23:12:00,
2013-04-04 18:17:00,51.9,29.3,30.02,NE,45,0.0,0.0,42,0.00,,,0.00,WUHU21636XXSP,2013-04-04 23:17:00,
2013-04-04 18:22:00,51.9,29.3,30.02,ENE,67,0.0,0.0,42,0.00,,,0.00,WUHU21636XXSP,2013-04-04 23:22:00,
2013-04-04 18:27:00,51.6,28.4,30.02,SW,225,0.0,0.0,41,0.00,,,0.00,WUHU21636XXSP,2013-04-04 23:27:00,
2013-04-04 18:32:00,50.9,27.9,30.02,ESE,112,0.0,0.0,41,0.00,,,0.00,WUHU21636XXSP,2013-04-04 23:32:00,
2013-04-04 18:37:00,50.7,27.1,30.02,ENE,67,0.0,0.0,40,0.00,,,0.00,WUHU21636XXSP,2013-04-04 23:37:00,
2013-04-04 18:42:00,50.0,25.8,30.02,WNW,292,0.0,0.0,39,0.00,,,0.00,WUHU21636XXSP,2013-04-04 23:42:00,
2013-04-04 18:47:00,49.8,26.2,30.02,North,0,0.0,0.0,40,0.00,,,0.00,WUHU21636XXSP,2013-04-04 23:47:00,
2013-04-04 18:52:00,49.7,26.1,30.02,NE,45,0.0,0.0,40,0.00,,,0.00,WUHU21636XXSP,2013-04-04 23:52:00,
2013-04-04 18:57:00,49.0,26.2,30.02,North,0,0.0,0.0,41,0.00,,,0.00,WUHU21636XXSP,2013-04-04 23:57:00,
2013-04-04 19:02:00,48.8,26.6,30.02,NNE,22,0.0,0.0,42,0.00,,,0.00,WUHU21636XXSP,2013-04-05 00:02:00,
2013-04-04 19:07:00,48.5,26.3,30.02,SSE,157,0.0,0.0,42,0.00,,,0.00,WUHU21636XXSP,2013-04-05 00:07:00,
2013-04-04 19:12:00,48.1,27.1,30.02,ENE,67,0.0,0.0,44,0.00,,,0.00,WUHU21636XXSP,2013-04-05 00:12:00,
2013-04-04 19:17:00,47.8,26.2,30.02,NE,45,0.0,0.0,43,0.00,,,0.00,WUHU21636XXSP,2013-04-05 00:17:00,
2013-04-04 19:22:00,47.1,26.2,30.02,East,90,0.0,0.0,44,0.00,,,0.00,WUHU21636XXSP,2013-04-05 00:22:00,
2013-04-04 19:27:00,46.8,25.9,30.02,NNE,22,0.0,0.0,44,0.00,,,0.00,WUHU21636XXSP,2013-04-05 00:27:00,
2013-04-04 19:32:00,46.2,26.4,30.02,ESE,112,0.0,0.0,46,0.00,,,0.00,WUHU21636XXSP,2013-04-05 00:32:00,
2013-04-04 19:37:00,46.0,26.8,30.03,ESE,112,0.0,0.0,47,0.00,,,0.00,WUHU21636XXSP,2013-04-05 00:37:00,
2013-04-04 19:42:00,45.0,26.4,30.03,ENE,67,0.0,0.0,48,0.00,,,0.00,WUHU21636XXSP,2013-04-05 00:42:00,
2013-04-04 19:47:00,44.9,25.8,30.03,ENE,67,0.0,0.0,47,0.00,,,0.00,WUHU21636XXSP,2013-04-05 00:47:00,
2013-04-04 19:52:00,44.3,25.8,30.03,West,270,0.0,0.0,48,0.00,,,0.00,WUHU21636XXSP,2013-04-05 00:52:00,
2013-04-04 19:57:00,44.0,26.0,30.03,SSE,157,0.0,0.0,49,0.00,,,0.00,WUHU21636XXSP,2013-04-05 00:57:00,
2013-04-04 20:02:00,43.4,25.4,30.03,SSE,157,0.0,0.0,49,0.00,,,0.00,WUHU21636XXSP,2013-04-05 01:02:00,
2013-04-04 20:07:00,43.0,25.6,30.03,SSE,157,0.0,0.0,50,0.00,,,0.00,WUHU21636XXSP,2013-04-05 01:07:00,
2013-04-04 20:12:00,42.8,25.9,30.04,SSE,157,0.0,0.0,51,0.00,,,0.00,WUHU21636XXSP,2013-04-05 01:12:00,
2013-04-04 20:17:00,42.2,25.3,30.03,SSE,157,0.0,0.0,51,0.00,,,0.00,WUHU21636XXSP,2013-04-05 01:17:00,
2013-04-04 20:22:00,41.9,25.5,30.03,SSE,157,0.0,0.0,52,0.00,,,0.00,WUHU21636XXSP,2013-04-05 01:22:00,
2013-04-04 20:27:00,41.3,24.9,30.04,SSE,157,0.0,0.0,52,0.00,,,0.00,WUHU21636XXSP,2013-04-05 01:27:00,
2013-04-04 20:32:00,41.0,25.1,30.04,SSE,157,0.0,0.0,53,0.00,,,0.00,WUHU21636XXSP,2013-04-05 01:32:00,
2013-04-04 20:38:00,40.7,24.9,30.05,SSE,157,0.0,0.0,53,0.00,,,0.00,WUHU21636XXSP,2013-04-05 01:38:00,
2013-04-04 20:42:00,40.3,25.0,30.05,SSE,157,0.0,0.0,54,0.00,,,0.00,WUHU21636XXSP,2013-04-05 01:42:00,
2013-04-04 20:47:00,40.0,24.7,30.05,SSE,157,0.0,0.0,54,0.00,,,0.00,WUHU21636XXSP,2013-04-05 01:47:00,
2013-04-04 20:53:00,39.6,24.8,30.05,ESE,112,0.0,0.0,55,0.00,,,0.00,WUHU21636XXSP,2013-04-05 01:53:00,
2013-04-04 20:58:00,39.4,24.6,30.05,ESE,112,0.0,0.0,55,0.00,,,0.00,WUHU21636XXSP,2013-04-05 01:58:00,
2013-04-04 21:03:00,39.1,24.7,30.06,ESE,112,0.0,0.0,56,0.00,,,0.00,WUHU21636XXSP,2013-04-05 02:03:00,
2013-04-04 21:08:00,38.4,24.5,30.06,ESE,112,0.0,0.0,57,0.00,,,0.00,WUHU21636XXSP,2013-04-05 02:08:00,
2013-04-04 21:13:00,38.1,24.3,30.06,ESE,112,0.0,0.0,57,0.00,,,0.00,WUHU21636XXSP,2013-04-05 02:13:00,
2013-04-04 21:18:00,38.1,24.3,30.06,ESE,112,0.0,0.0,57,0.00,,,0.00,WUHU21636XXSP,2013-04-05 02:18:00,
2013-04-04 21:23:00,37.7,24.3,30.06,ESE,112,0.0,0.0,58,0.00,,,0.00,WUHU21636XXSP,2013-04-05 02:23:00,
2013-04-04 21:28:00,37.5,24.1,30.06,ESE,112,0.0,0.0,58,0.00,,,0.00,WUHU21636XXSP,2013-04-05 02:28:00,
2013-04-04 21:33:00,37.5,24.1,30.06,ESE,112,0.0,0.0,58,0.00,,,0.00,WUHU21636XXSP,2013-04-05 02:33:00,
2013-04-04 21:38:00,37.2,24.2,30.07,ESE,112,0.0,0.0,59,0.00,,,0.00,WUHU21636XXSP,2013-04-05 02:38:00,
2013-04-04 21:43:00,36.8,23.8,30.07,ESE,112,0.0,0.0,59,0.00,,,0.00,WUHU21636XXSP,2013-04-05 02:43:00,
2013-04-04 21:48:00,36.5,24.0,30.07,ESE,112,0.0,0.0,60,0.00,,,0.00,WUHU21636XXSP,2013-04-05 02:48:00,
2013-04-04 21:53:00,36.2,24.1,30.07,East,90,0.0,0.0,61,0.00,,,0.00,WUHU21636XXSP,2013-04-05 02:53:00,
2013-04-04 21:58:00,35.8,23.7,30.07,ENE,67,0.0,0.0,61,0.00,,,0.00,WUHU21636XXSP,2013-04-05 02:58:00,
2013-04-04 22:03:00,35.6,23.9,30.07,ENE,67,0.0,0.0,62,0.00,,,0.00,WUHU21636XXSP,2013-04-05 03:03:00,
2013-04-04 22:08:00,35.3,23.6,30.07,ENE,67,0.0,0.0,62,0.00,,,0.00,WUHU21636XXSP,2013-04-05 03:08:00,
2013-04-04 22:13:00,35.3,24.0,30.07,ENE,67,0.0,0.0,63,0.00,,,0.00,WUHU21636XXSP,2013-04-05 03:13:00,
2013-04-04 22:18:00,34.9,24.0,30.08,ENE,67,0.0,0.0,64,0.00,,,0.00,WUHU21636XXSP,2013-04-05 03:18:00,
2013-04-04 22:23:00,35.1,25.3,30.08,ENE,67,0.0,0.0,67,0.00,,,0.00,WUHU21636XXSP,2013-04-05 03:23:00,
2013-04-04 22:28:00,34.9,24.4,30.08,ENE,67,0.0,0.0,65,0.00,,,0.00,WUHU21636XXSP,2013-04-05 03:28:00,
2013-04-04 22:33:00,34.7,23.8,30.08,ENE,67,0.0,0.0,64,0.00,,,0.00,WUHU21636XXSP,2013-04-05 03:33:00,
2013-04-04 22:38:00,34.5,24.1,30.08,ENE,67,0.0,0.0,65,0.00,,,0.00,WUHU21636XXSP,2013-04-05 03:38:00,
2013-04-04 22:43:00,34.5,24.1,30.08,ENE,67,0.0,0.0,65,0.00,,,0.00,WUHU21636XXSP,2013-04-05 03:43:00,
2013-04-04 22:48:00,34.3,23.9,30.08,ENE,67,0.0,0.0,65,0.00,,,0.00,WUHU21636XXSP,2013-04-05 03:48:00,
2013-04-04 22:53:00,34.1,23.7,30.08,ENE,67,0.0,0.0,65,0.00,,,0.00,WUHU21636XXSP,2013-04-05 03:53:00,
2013-04-04 22:58:00,33.7,23.3,30.08,ENE,67,0.0,0.0,65,0.00,,,0.00,WUHU21636XXSP,2013-04-05 03:58:00,
2013-04-04 23:00:00,33.7,23.3,30.09,ENE,67,0.0,0.0,65,0.00,,,0.00,WUHU21636XXSP,2013-04-05 04:00:00,
2013-04-04 23:05:00,33.7,23.3,30.08,ENE,67,0.0,0.0,65,0.00,,,0.00,WUHU21636XXSP,2013-04-05 04:05:00,
2013-04-04 23:10:00,33.4,22.6,30.09,ENE,67,0.0,0.0,64,0.00,,,0.00,WUHU21636XXSP,2013-04-05 04:10:00,
2013-04-04 23:15:00,33.0,22.6,30.09,ENE,67,0.0,0.0,65,0.00,,,0.00,WUHU21636XXSP,2013-04-05 04:15:00,
2013-04-04 23:20:00,33.0,22.6,30.09,ENE,67,0.0,0.0,65,0.00,,,0.00,WUHU21636XXSP,2013-04-05 04:20:00,
2013-04-04 23:25:00,33.0,22.6,30.09,ENE,67,0.0,0.0,65,0.00,,,0.00,WUHU21636XXSP,2013-04-05 04:25:00,
2013-04-04 23:30:00,33.0,22.6,30.09,ENE,67,0.0,0.0,65,0.00,,,0.00,WUHU21636XXSP,2013-04-05 04:30:00,
2013-04-04 23:35:00,32.8,22.7,30.09,ENE,67,0.0,0.0,66,0.00,,,0.00,WUHU21636XXSP,2013-04-05 04:35:00,
2013-04-04 23:40:00,32.7,22.6,30.09,ENE,67,0.0,0.0,66,0.00,,,0.00,WUHU21636XXSP,2013-04-05 04:40:00,
2013-04-04 23:46:00,32.4,22.4,30.09,ENE,67,0.0,0.0,66,0.00,,,0.00,WUHU21636XXSP,2013-04-05 04:46:00,
2013-04-04 23:51:00,32.2,22.6,30.09,ENE,67,0.0,0.0,67,0.00,,,0.00,WUHU21636XXSP,2013-04-05 04:51:00,
2013-04-04 23:56:00,32.0,22.4,30.10,ENE,67,0.0,0.0,67,0.00,,,0.00,WUHU21636XXSP,2013-04-05 04:56:00,